Weather in Tumbes

Peru     3°34′04″S   80°27′10″W
temp.,
°C
wind,
m/s
gust,
m/s
humid.,
%
clouds,
%
prec.,
mm/h
press.,
hPa
HPBL,
m
29 november, mon
mon2901:00+22w3378100 0.0 1011250
04:00+22ne1178100 0.0 1010215
07:00+23e337996 0.0 1012289
10:00+24nne337662 0.0 1013386
13:00+23nnw448052 0.0 1011342
16:00+23w5479100 0.0 1009414
19:00+22wsw5481100 0.0 1012306
22:00+22wsw448093 0.0 1014291
30 november, tue
tue3001:00+22w4482100 0.0 1012315
04:00+22ene1180100 0.0 1011275
07:00+22e4583100 0.0 1012389
10:00+23nne447953 0.0 1013477
13:00+23nnw558299 0.0 1010350
16:00+23w3382100 0.0 1010468
19:00+22wsw5583100 0.0 1011299
22:00+22wsw5580100 0.0 1013287
1 december, wed
wed101:00+22wsw3380100 0.0 1012295
04:00+22n228068 0.0 1011356
07:00+22nnw228296 0.0 1013473
10:00+22nw338298 0.0 1014491
13:00+22wnw548345 0.0 1012472
16:00+22w548461 0.0 1010517
19:00+22wsw548295 0.0 1012548
22:00+22wsw4482100 0.0 1014522
2 december, thu
thu201:00+21wsw438495 0.0 1013510
04:00+21w3384100 0.0 1012482
07:00+22w328282 0.0 1014446
10:00+22wnw118146 0.0 1014381
13:00+22wnw4283100 0.0 1012386
16:00+22w4486100 0.0 1010360
19:00+22wsw558596 0.0 1011406
22:00+22wsw548091 0.0 1013357
3 december, fri
fri301:00+22w227985 0.0 1012277
04:00+22ene1180100 0.0 1011220
07:00+22ene2382100 0.0 1012274
10:00+23n337864 0.0 1013417
13:00+23nnw44807 0.0 1010352
16:00+23w448157 0.0 1008375
19:00+22wsw7781100 0.0 1010325
22:00+23wsw4479100 0.0 1012321